Find Kosmos-1198

NORAD ID: 11881 Int'l Des: 1980-058 Owner: GUKOSR Country: SU operational
LEOCIRCULAR

リアルタイム位置

3D地球を読み込み中...

Kosmos-1198について

説明を読み込み中...

次回通過

Passes for default location (London). Set your location on the main map for personalized predictions.

高度履歴

Loading altitude history...

軌道要素

1 11881U 80058G 26104.33230262 .00000005 00000-0 14899-3 0 9993
2 11881 74.0165 298.5294 0022405 292.9671 244.9387 12.43792752 77892
Epoch: Apr 14, 2026 • Age: 10 hours

現在のステータス

高度 1487.8 km
速度 7.13 km/s
衛星直下点 -33.25°S, 168°E
打ち上げ日 Jul 9, 1980
運用期間 45.7 years
タイプ other

技術仕様

分類 Payload
質量 60.00 kg
乾燥質量 60.00 kg
総質量 60.00 kg
長さ 0.80 m
直径 0.80 m
スパン 0.80 m
形状 Poly
製造者 NPOPM
バスタイプ Strela-1 11F625
フェーズステータス In Orbit
所有者/国 GUKOSR/SU

Most Searched